Hourly Data Report for October 24, 2016

All times are specified in Local Standard Time (LST). Add 1 hour to adjust for Daylight Saving Time where and when it is observed.

BAKER LAKE A
NUNAVUT

64°17'56.000" N
96°04'40.000" W
18.60 m
2300503
71926
YBK

Download Data

Hourly Data (October 2016)
Hourly Data Report for October 24, 2016
Temp Definition
°C
Dew Point Temp Definition
°C
Rel Hum Definition
%
Wind Dir Definition
10's deg

Wind Spd Definition
km/h
Visibility Definition
km
Stn Press Definition
kPa
Hmdx Definition


Wind Chill Definition


Weather Definition


TIME
00:00 Legend Double Dagger -2.9 -3.6 95 8 21 24.1 103.04   -9 Snow
01:00 Legend Double Dagger -2.2 -2.9 95 8 22 24.1 103.05   -8 Snow
02:00 Legend Double Dagger -1.1 -1.9 94 12 22 24.1 103.09   -7 Snow
03:00 Legend Double Dagger -1.2 -2.2 93 12 24 24.1 103.12   -7 Snow
04:00 Legend Double Dagger -1.4 -2.4 93 13 21 24.1 103.14   -7 Snow
05:00 Legend Double Dagger -1.7 -2.5 94 13 19 24.1 103.17   -7 Snow
06:00 Legend Double Dagger -2.1 -3.1 93 13 19 24.1 103.19   -8 Snow
07:00 Legend Double Dagger -2.3 -3.1 94 14 14 24.1 103.22   -7 Snow
08:00 Legend Double Dagger -2.7 -3.5 94 14 15 24.1 103.23   -8 Snow
09:00 Legend Double Dagger -2.5 -3.1 96 14 12 24.1 103.24   -7 Snow
10:00 Legend Double Dagger -2.7 -3.7 93 15 12 24.1 103.24   -7 Snow
11:00 Legend Double Dagger -2.9 -3.9 93 19 3 24.1 103.24   -4 Snow
12:00 Legend Double Dagger -3.0 -4.4 90 19 4 24.1 103.21   -5 Mostly Cloudy
13:00 Legend Double Dagger -4.3 -5.4 92 29 5 32.2 103.21   -6 LegendNANA
14:00 Legend Double Dagger -4.1 -5.2 92 32 4 24.1 103.22   -6 LegendNANA
15:00 Legend Double Dagger -4.4 -5.4 93 35 7 24.1 103.21   -8 Mostly Cloudy
16:00 Legend Double Dagger -5.6 -6.4 94 34 12 24.1 103.18   -11 LegendNANA
17:00 Legend Double Dagger -5.4 -6.1 95 32 8 24.1 103.17   -9 LegendNANA
18:00 Legend Double Dagger -4.8 -5.3 96 31 4 24.1 103.17   -7 Mostly Cloudy
19:00 Legend Double Dagger -4.9 -5.6 95 31 10 24.1 103.15   -9 LegendNANA
20:00 Legend Double Dagger -4.4 -5.2 94 32 3 24.1 103.13   -6 Snow
21:00 Legend Double Dagger -4.8 -5.3 96 21 7 24.1 103.09   -8 Snow
22:00 Legend Double Dagger -4.3 -4.8 96 21 4 24.1 103.08   -6 Snow
23:00 Legend Double Dagger -4.8 -5.3 96 22 8 24.1 103.06   -8 Snow

Notes on Data Quality.

Legend

  • E = Estimated
  • M = Missing
  • NA = Not Available
  • ‡ = Partner data that is not subject to review by the National Climate Archives
Date modified: